Orbital Elements at Epoch 2459200.5 (2020-Dec-17.0) TDB
Reference: JPL 21 (heliocentric ecliptic J2000)
Element | Value | Uncertainty (1-sigma) | Units |
e | .2634437148555527 | 4.8586e-08 | |
a | 2.366890848300516 | 9.5633e-09 | au |
q | 1.743348330566618 | 1.1831e-07 | au |
i | 8.586779233154452 | 5.1386e-06 | deg |
node | 303.1521890849009 | 2.4047e-05 | deg |
peri | 358.0649330042228 | 2.5793e-05 | deg |
M | 138.0912412137883 | 6.5256e-06 | deg |
tp | 2458690.312980307032 (2019-Jul-25.81298031) | 2.4802e-05 | TDB |
period | 1330.043277727663 3.64 | 8.061e-06 2.207e-08 | d yr |
n | .2706678842924936 | 1.6404e-09 | deg/d |
Q | 2.990433366034415 | 1.2083e-08 | au |
|
| | Orbit Determination Parameters
Additional Information
|